TIME,DELAY(SENSOR),PRES,OXYGEN,RAWTEMP,T(OPTODE),TCPHASE,FLUOR,BETA(BETA700),BETA(BETA412),BETA(BETA440),CDOM,C(CSC),ED(ED411.90),ED(ED443.80),ED(ED489.40),ED(ED554.70),LU(LU412.20),LU(LU443.80),LU(LU489.40),LU(LU555.00),COMP,TILTX,TILTY,CHECK
1351549370,5804,875.4000244140625000,166.3894958496093800,446.3776855468750000,9.5496635437011720,39.8158111572265600,50,104,61,71,50,2005,2147454409,2147788032,2147574875,2147821805,2147310253,2147458971,2147749933,2148271414,2621,6,14,37715
1351552967,5803,8.1999998092651370,203.6136932373047000,515.0264282226562000,7.4089918136596680,38.5085792541503900,50,102,62,72,51,2000,2147439314,2147796681,2147582701,2147829165,2147310939,2147452379,2147764324,2148279387,622,6,14,3747
1351556567,5803,10.6000003814697270,215.0850982666015600,528.5214843750000000,6.9845027923583980,38.0731697082519500,50,103,61,72,50,1995,2147436873,2147800713,2147586185,2147832493,2147306038,2147453037,2147766080,2148278866,2786,6,15,1524
1351560167,5805,11.1999998092651370,218.5630035400390600,531.3496704101562000,6.8953719139099120,37.9262809753418000,50,102,60,74,51,1993,2147435794,2147800978,2147584941,2147829257,2147310070,2147454025,2147768091,2148279881,3376,6,15,54640
1351563767,5803,1093.0000000000000000,219.5115051269531200,532.9450073242188000,6.8450698852539060,37.9009895324707000,50,103,62,72,50,1990,2147436681,2147794139,2147583213,2147830802,2147307117,2147453604,2147764891,2148279113,2565,6,14,1771
1351567367,5804,10.6000003814697270,220.1741943359375000,534.3858032226562000,6.7996230125427250,37.8902587890625000,50,101,61,71,51,1990,2147438784,2147798208,2147584000,2147828946,2147307986,2147449298,2147768384,2148282276,3128,6,15,35384
1351570967,5802,12.1000003814697270,218.7380981445312500,533.0325927734375000,6.8423080444335940,37.9466400146484400,50,101,61,71,51,1986,2147435401,2147797467,2147582646,2147834212,2147304466,2147456438,2147768356,2148278464,2961,6,15,43662
1351574567,5802,1266.0000000000000000,220.1412963867187500,534.5501098632812000,6.7944388389587400,37.8953781127929700,50,100,61,72,51,1985,2147436342,2147798582,2147582930,2147829321,2147306660,2147448310,2147765293,2148285257,3316,6,15,48901
1351578167,5805,1273.0000000000000000,220.8200988769531200,534.1818847656250000,6.8060550689697270,37.8501510620117200,50,105,61,72,52,1985,2147436141,2147800137,2147582729,2147832155,2147307108,2147449965,2147769362,2148282742,3540,6,15,26908
1351581767,5804,10.8000001907348630,221.4284973144531200,536.8259277343750000,6.7226200103759770,37.8642082214355500,50,102,62,72,51,1982,2147434843,2147796534,2147583835,2147834166,2147305755,2147453046,2147770121,2148281133,646,6,15,37197
1351585367,5805,12.3000001907348630,223.0538024902343800,537.2369995117188000,6.7096419334411620,37.7812500000000000,50,119,61,71,50,1981,2147436022,2147800932,2147584484,2147833344,2147304201,2147451538,2147765869,2148280804,3308,6,14,22290
1351588967,5804,1086.0000000000000000,225.3305969238281200,539.4036254882812000,6.6412258148193360,37.6958084106445300,50,103,62,72,51,1976,2147440813,2147800146,2147583396,2147833545,2147305600,2147449444,2147766308,2148281206,3117,6,14,47318
1351592567,5803,1005.0000000000000000,225.5612945556640600,539.4398193359375000,6.6400809288024900,37.6838798522949200,50,106,61,73,50,1974,2147436150,2147798820,2147585014,2147836626,2147305325,2147451913,2147771145,2148277952,3184,6,15,28189
1351596167,5804,1251.0000000000000000,226.3047943115234400,539.2528076171875000,6.6459879875183105,37.6397209167480500,50,102,62,73,51,1969,2147435318,2147794395,2147582107,2147831003,2147306020,2147454582,2147768228,2148279369,3090,6,14,24138
1351599767,5804,1002.0000000000000000,225.6161041259765600,539.0112915039062000,6.6536159515380860,37.6726913452148440,50,100,61,72,50,1966,2147432484,2147798619,2147583524,2147830509,2147303707,2147450322,2147769572,2148281188,3373,6,15,48198
1351603367,5801,10.1999998092651370,220.9880981445312500,535.5078125000000000,6.7642211914062500,37.8651809692382800,50,100,61,71,51,1965,2147435977,2147798016,2147586276,2147832073,2147306843,2147450898,2147768173,2148277842,53,6,14,899
1351606967,5804,14.3999996185302730,219.9965057373047000,535.1358032226562000,6.7759590148925780,37.9137496948242200,50,101,61,72,51,1965,2147431616,2147800795,2147584301,2147831670,2147309860,2147456795,2147768841,2148281344,3547,6,14,20423
1351610567,5803,10.5000000000000000,216.3518981933593800,530.3796997070312000,6.9259490966796875,38.0343589782714840,50,100,61,72,51,1962,2147434870,2147798034,2147583259,2147831104,2147309238,2147454948,2147771026,2148281069,3505,6,14,31891
1351614167,5802,10.0000000000000000,216.4786071777343800,531.0219116210938000,6.9057040214538570,38.0383682250976560,50,101,62,71,52,1962,2147435328,2147798034,2147582966,2147834102,2147307300,2147450688,2147770240,2148279625,3325,6,15,27693
1351617767,5806,12.6999998092651370,216.3466033935547000,531.6489868164062000,6.8859372138977050,38.0568809509277340,50,103,61,71,50,1962,2147438208,2147798034,2147580406,2147831524,2147306532,2147453750,2147767954,2148277650,47,6,14,50019
1351621367,5805,1280.0000000000000000,216.8907012939453000,530.7733154296875000,6.9135441780090330,38.0101203918457000,51,100,62,72,51,1964,2147437193,2147797101,2147581906,2147831597,2147305801,2147449645,2147767030,2148280749,3134,6,15,49614
1351624967,5804,12.5000000000000000,214.9411926269531200,530.4843750000000000,6.9226469993591310,38.1167602539062500,50,101,62,72,51,1963,2147435821,2147795574,2147583451,2147830262,2147306998,2147452626,2147769435,2148277577,104,6,15,39986
1351628567,5805,1061.0000000000000000,216.0234985351562500,531.6140747070312000,6.8870348930358890,38.0747489929199200,50,99,61,72,50,1963,2147438482,2147798153,2147581129,2147829878,2147305481,2147454253,2147769252,2148279405,418,6,15,1194
1351632167,5804,12.3000001907348630,216.0865936279297000,532.1052856445312000,6.8715500831604000,38.0803108215332000,50,101,61,73,51,1964,2147438464,2147798381,2147582244,2147831817,2147306770,2147453037,2147767680,2148278400,292,6,14,6360
1351635767,5801,12.3999996185302730,216.3739929199218800,532.4744873046875000,6.8599071502685550,38.0697898864746100,50,99,61,72,52,1962,2147437092,2147798784,2147583652,2147831771,2147302427,2147451218,2147767296,2148280731,3129,6,14,35253
1351639367,5804,1026.0000000000000000,217.1795043945312500,532.6760253906250000,6.8535518646240230,38.0279083251953100,50,99,62,72,51,1962,2147434276,2147797494,2147580672,2147834020,2147307474,2147450715,2147770285,2148280676,413,6,14,63646
1351642967,5804,12.1999998092651370,219.3668060302734400,533.1685180664062000,6.8380222320556640,37.9133796691894500,50,102,63,73,52,1960,2147436370,2147799762,2147580699,2147832283,2147309174,2147453952,2147766390,2148279131,3425,6,15,62628
1351646567,5805,10.3999996185302730,217.1949005126953000,533.9708862304688000,6.8127098083496090,38.0506896972656250,50,103,60,72,52,1956,2147435547,2147798528,2147580059,2147831762,2147306331,2147451163,2147766710,2148283876,3372,6,14,26023
1351650167,5803,10.5000000000000000,219.7165069580078000,534.8319702148438000,6.7855467796325680,37.9235382080078100,50,100,60,72,50,1955,2147433856,2147799259,2147582372,2147830354,2147305517,2147450989,2147769152,2148278235,3571,6,15,5882
1351653767,5805,114.0000000000000000,220.5675964355468800,534.6569824218750000,6.7910652160644530,37.8731384277343750,50,100,61,72,51,1954,2147436425,2147798637,2147581613,2147831140,2147306660,2147458157,2147769682,2148279131,147,6,14,2029
1351657367,5806,10.1000003814697270,219.6235961914062500,536.4990844726562000,6.7329368591308590,37.9589805603027340,50,101,62,71,51,1950,2147435309,2147796900,2147581065,2147830710,2147305042,2147453750,2147768813,2148278272,161,6,14,44031
1351660967,5802,29.0000000000000000,220.6255950927734400,536.2600097656250000,6.7404818534851070,37.8985099792480500,50,102,60,72,51,1950,2147433188,2147796736,2147582006,2147831570,2147308288,2147452662,2147769216,2148279597,3277,6,15,4265
1351664567,5805,12.6999998092651370,220.7906036376953000,534.2675781250000000,6.8033499717712400,37.8537597656250000,50,103,61,72,51,1947,2147436617,2147796809,2147581275,2147834770,2147303972,2147456173,2147769910,2148281060,100,6,14,29181
1351668167,5805,1082.0000000000000000,220.6352996826172000,534.1801147460938000,6.8061141967773440,37.8609695434570300,50,99,61,72,51,1945,2147436260,2147800832,2147583570,2147832621,2147309083,2147453403,2147762532,2148282157,156,6,15,45217
1351671767,5754,1297.0000000000000000,219.0023040771484400,532.6218872070312000,6.8552570343017580,37.9239883422851560,50,104,61,73,51,1945,2147439259,2147796297,2147580653,2147831625,2147305161,2147453659,2147769197,2148279862,676,6,14,53198
1351675367,5802,10.5000000000000000,218.2391052246093800,531.6480712890625000,6.8859648704528810,37.9498214721679700,50,101,61,71,51,1948,2147436964,2147798683,2147580873,2147829458,2147306313,2147454409,2147766601,2148278838,546,6,14,33059
1351678967,5802,1323.0000000000000000,218.2722930908203000,531.6646118164062000,6.8854451179504395,37.9486198425293000,50,101,61,71,51,1949,2147436845,2147797485,2147583314,2147830829,2147304768,2147452434,2147766893,2148280841,674,6,14,60166
1351682567,5805,13.3999996185302730,218.0104980468750000,531.4993286132812000,6.8906569480896000,37.9599609375000000,50,101,60,71,50,1949,2147435913,2147795840,2147583488,2147829248,2147309888,2147453769,2147767332,2148279716,843,6,14,34828
1351686167,5801,10.5000000000000000,211.8824005126953000,525.2869262695312000,7.0863671302795410,38.2000694274902340,50,101,61,72,51,1953,2147437970,2147799515,2147580306,2147831570,2147304274,2147454774,2147764123,2148279268,3085,6,14,37223
1351689767,5806,1082.0000000000000000,211.5601043701172000,524.8507080078125000,7.1000981330871580,38.2108306884765600,50,108,60,73,51,1957,2147437421,2147800374,2147584347,2147829869,2147307931,2147454363,2147766546,2148280384,103,6,14,20869
1351690855,5805,11.0000000000000000,212.1728057861328000,525.0529174804688000,7.0937352180480960,38.1793708801269500,50,105,61,71,51,1955,2147437193,2147797714,2147581449,2147828333,2147306870,2147448530,2147762486,2148279131,3390,6,14,64112
